全部
Malmen Air Base Airport (Linkoping) ESCF 天氣
|
Linkoping (ESCF)
晴天
多風 |
|
21 °C |
ESCF終端機場天氣預報
| Date | Time (CEST) | Flight Rules | Wind Dir. | Speed | Type | Height AGL (ft) | Visibility | Remarks | ||||||
|---|---|---|---|---|---|---|---|---|---|---|---|---|---|---|
ESCF近期METAR歷史資料
| Date | Time (CEST) | Flight Rules | Wind Dir. | Speed | Type | Height AGL (ft) | Visibility | Temp (°C) | Temp (°F) | Dew Point (°C) | Dew Point (°F) | Rel. Humid. | Pressure | Density Altitude | Remarks |
|---|---|---|---|---|---|---|---|---|---|---|---|---|---|---|---|
| 02-五月 | 19:50 | VFR | 250° | 11 kt | 10000 meters | 21° | 69° | 4° | 39° | 33% | 1009 mb | 1,152 ft | |||
| 02-五月 | 19:20 | VFR | 240° | 13 kt | 10000 meters | 22° | 71° | 4° | 39° | 31% | 1009 mb | 1,272 ft | |||
| 02-五月 | 18:50 | VFR | 250° | 15 kt | 10000 meters | 22° | 71° | 4° | 39° | 31% | 1009 mb | 1,272 ft | |||
| 02-五月 | 18:20 | VFR | 250° | 13 kt | 10000 meters | 23° | 73° | 4° | 39° | 29% | 1010 mb | 1,363 ft | |||
| 02-五月 | 17:50 | VFR | 250° | 15 kt | 10000 meters | 23° | 73° | 4° | 39° | 29% | 1010 mb | 1,363 ft | |||
| 02-五月 | 17:20 | VFR | 250° | 14 kt | 10000 meters | 23° | 73° | 5° | 41° | 31% | 1010 mb | 1,363 ft | |||
| 02-五月 | 16:50 | VFR | 260° | 15 kt | 10000 meters | 23° | 73° | 5° | 41° | 31% | 1010 mb | 1,363 ft | |||
| 02-五月 | 16:20 | VFR | 250° | 14 kt | 10000 meters | 23° | 73° | 5° | 41° | 31% | 1011 mb | 1,333 ft | |||
| 02-五月 | 15:50 | VFR | 240° | 16 kt | 10000 meters | 23° | 73° | 6° | 42° | 33% | 1011 mb | 1,333 ft | |||
| 02-五月 | 15:20 | VFR | 240° | 14 kt | 10000 meters | 23° | 73° | 6° | 42° | 33% | 1011 mb | 1,333 ft | |||
| 02-五月 | 14:50 | VFR | 240° | 16 kt | 10000 meters | 23° | 73° | 6° | 42° | 33% | 1012 mb | 1,304 ft | |||
| 02-五月 | 14:20 | VFR | 250° | 16 kt | 10000 meters | 23° | 73° | 6° | 42° | 33% | 1012 mb | 1,304 ft | |||
| 02-五月 | 13:50 | VFR | 240° | 17 kt | 10000 meters | 23° | 73° | 6° | 42° | 33% | 1013 mb | 1,274 ft | |||
| 02-五月 | 13:20 | VFR | 240° | 16 kt | 10000 meters | 22° | 71° | 5° | 41° | 33% | 1013 mb | 1,154 ft | |||
| 02-五月 | 12:50 | VFR | 250° | 19 kt | 10000 meters | 22° | 71° | 5° | 41° | 33% | 1014 mb | 1,125 ft | |||
| 02-五月 | 12:20 | VFR | 230° | 14 kt | 10000 meters | 22° | 71° | 6° | 42° | 35% | 1014 mb | 1,125 ft | Wind gusting to 24 KT | ||
| 02-五月 | 11:50 | VFR | 220° | 16 kt | 10000 meters | 22° | 71° | 6° | 42° | 35% | 1014 mb | 1,125 ft | |||
| 02-五月 | 11:20 | VFR | 230° | 12 kt | 10000 meters | 21° | 69° | 6° | 42° | 38% | 1014 mb | 1,005 ft | |||
| 02-五月 | 10:50 | VFR | 230° | 11 kt | 10000 meters | 20° | 68° | 7° | 44° | 43% | 1015 mb | 855 ft | Wind gusting to 26 KT | ||
| 02-五月 | 10:20 | VFR | 220° | 11 kt | 10000 meters | 19° | 66° | 7° | 44° | 46% | 1016 mb | 706 ft | |||
| 02-五月 | 09:50 | VFR | 220° | 11 kt | 10000 meters | 18° | 64° | 7° | 44° | 49% | 1016 mb | 586 ft | |||
| 02-五月 | 09:20 | VFR | 220° | 10 kt | 10000 meters | 17° | 62° | 7° | 44° | 52% | 1016 mb | 466 ft | |||
| 02-五月 | 08:50 | VFR | 220° | 11 kt | 10000 meters | 15° | 59° | 6° | 42° | 55% | 1016 mb | 226 ft | |||
| 02-五月 | 08:20 | VFR | 230° | 9 kt | 10000 meters | 14° | 57° | 6° | 42° | 58% | 1017 mb | 76 ft |
登入
| 您的瀏覽器不支援. 升級您的瀏覽器 |
